Regional Weather Roundup
Issued by NWS Kansas City/Pleasant Hill, MO

Home | Current Version | Previous Version | Text Only | Print | Product List | Glossary On
Versions: 1 2 3 4 5 6 7 8 9 10 11 12 13 14 15 16 17 18 19 20 21 22 23 24 25 26 27
000
ASUS43 KEAX 231510
RWREAX

WEATHER ROUNDUP FOR EASTERN KANSAS AND NORTHWEST MISSOURI
NATIONAL WEATHER SERVICE KANSAS CITY/PLEASANT HILL MO
1000 AM CDT SUN APR 23 2017

KSZ040-057-103>105-MOZ028-029-037-043-231600-
...KANSAS CITY METROPOLITAN AREA...

CITY           SKY/WX    TMP DP  RH WIND       PRES   REMARKS
K.C. INTL      MOSUNNY   59  34  39 N6        30.18S
K.C. DOWNTOWN  SUNNY     59  38  45 CALM      30.17F
LEES SUMMIT    SUNNY     59  36  42 NE5       30.18S
OLATHE - IXD   SUNNY     58  37  45 VRB5      30.18S
OLATHE - OJC   SUNNY     58  34  40 NE3       30.18S
LAWRENCE       SUNNY     57  41  55 CALM      30.19S

$$

MOZ001>008-011>017-020>025-030>033-038>040-044>046-053-054-231600-
...NORTHERN AND CENTRAL MISSOURI...

CITY           SKY/WX    TMP DP  RH WIND       PRES   REMARKS
ST. JOSEPH     SUNNY     56  43  61 VRB3      30.19S
MOSBY          SUNNY     59  36  41 N3        30.18S
WHITEMAN AFB   SUNNY     57  34  41 NE5       30.15F
CLINTON        SUNNY     55  37  50 N5        30.17S
SEDALIA        NOT AVBL
WARSAW         NOT AVBL
CHILLICOTHE      N/A     60  37  42 VRB5      30.19R
KIRKSVILLE     SUNNY     62  34  35 NE9       30.17S

$$

MOZ041-047>049-056>058-063>065-088>090-097-231600-
...EASTERN AND SOUTHERN MISSOURI...

CITY           SKY/WX    TMP DP  RH WIND       PRES   REMARKS
ST. LOUIS INTL SUNNY     60  34  37 NE12      30.11F
SPIRIT OF STL  SUNNY     59  37  44 NE13      30.11S
COLUMBIA       SUNNY     58  34  40 N9        30.14S
JEFFERSON CITY SUNNY     60  32  34 NE8       30.14S
ROLLA          SUNNY     56  37  49 N17       30.11S
OSAGE BEACH    SUNNY     55  36  48 NE10      30.15S
SPRINGFIELD    SUNNY     56  39  53 NE12      30.12S
BRANSON        SUNNY     54  39  58 NW7       30.12F
JOPLIN         SUNNY     55  41  59 N6        30.16R
WEST PLAINS    SUNNY     56  38  50 N17G26    30.08S

$$

IAZ060-094-KSZ022-034>040-054-083-096-NEZ052-066-093-231600-
...KANSAS...SOUTHEAST NEBRASKA AND IOWA...

CITY           SKY/WX    TMP DP  RH WIND       PRES   REMARKS
TOPEKA         SUNNY     56  40  55 CALM      30.19S
MANHATTAN      SUNNY     55  42  61 VRB3      30.19F
EMPORIA        SUNNY     56  37  49 NE5       30.19S
CHANUTE        SUNNY     57  38  48 NE5       30.18S
WICHITA        SUNNY     57  36  45 CALM      30.20S
OMAHA          MOSUNNY   58  41  53 S7        30.15F
LINCOLN        SUNNY     59  38  45 S9        30.17F
FALLS CITY     SUNNY     58  38  47 W5        30.17F
LAMONI         SUNNY     61  35  37 NW8       30.16F
DES MOINES     SUNNY     62  35  36 W5        30.15F

$$





USA.gov is the U.S. government's official web portal to all federal, state and local government web resources and services.